This is the latest recevied weather packets stored in our database for station/object DL9GRB-13. If no packets are shown the sender has not sent any weather packets the latest 10 day(s).
| Time | Temp. | Humidity | Pressure | Rain* | Wind** | Luminosity | Snow |
|---|---|---|---|---|---|---|---|
| 1777561146 | 18.33° C | 35% | 1029.5 hPa | 0 mm | - | 374 W/m² | - |
| 1777560966 | 18.33° C | 35% | 1029.3 hPa | 0 mm | - | 383 W/m² | - |
| 1777560786 | 17.78° C | 35% | 1029.4 hPa | 0 mm | - | 389 W/m² | - |
| 1777560606 | 17.78° C | 35% | 1029.5 hPa | 0 mm | - | 400 W/m² | - |
| 1777560426 | 17.78° C | 35% | 1029.6 hPa | 0 mm | - | 412 W/m² | - |
| 1777560246 | 17.78° C | 34% | 1029.5 hPa | 0 mm | - | 421 W/m² | - |
| 1777560066 | 17.78° C | 35% | 1029.4 hPa | 0 mm | - | 423 W/m² | - |
| 1777559886 | 18.33° C | 35% | 1029.6 hPa | 0 mm | - | 428 W/m² | - |
| 1777559706 | 18.33° C | 34% | 1029.8 hPa | 0 mm | - | 440 W/m² | - |
| 1777559526 | 17.78° C | 34% | 1029.6 hPa | 0 mm | - | 453 W/m² | - |
| 1777559346 | 17.78° C | 35% | 1029.6 hPa | 0 mm | - | 459 W/m² | - |
| 1777559166 | 18.33° C | 34% | 1029.9 hPa | 0 mm | - | 476 W/m² | - |
| 1777558986 | 18.33° C | 35% | 1029.7 hPa | 0 mm | - | 488 W/m² | - |
| 1777558806 | 18.33° C | 35% | 1029.7 hPa | 0 mm | - | 498 W/m² | - |
| 1777558626 | 18.33° C | 35% | 1029.8 hPa | 0 mm | - | 519 W/m² | - |
| 1777558446 | 18.33° C | 34% | 1029.9 hPa | 0 mm | - | 527 W/m² | - |
| 1777558266 | 17.78° C | 35% | 1029.8 hPa | 0 mm | - | 532 W/m² | - |
| 1777558086 | 17.78° C | 35% | 1029.9 hPa | 0 mm | - | 544 W/m² | - |
| 1777557906 | 17.78° C | 34% | 1030 hPa | 0 mm | - | 549 W/m² | - |
| 1777557726 | 17.78° C | 36% | 1029.8 hPa | 0 mm | - | 552 W/m² | - |
| 1777557546 | 17.78° C | 35% | 1029.9 hPa | 0 mm | - | 543 W/m² | - |
| 1777557366 | 17.78° C | 34% | 1030.1 hPa | 0 mm | - | 528 W/m² | - |
| 1777557186 | 17.78° C | 35% | 1029.9 hPa | 0 mm | - | 549 W/m² | - |
| 1777557006 | 17.78° C | 35% | 1030 hPa | 0 mm | - | 585 W/m² | - |
| 1777556826 | 17.78° C | 35% | 1030.1 hPa | 0 mm | - | 590 W/m² | - |
* Rain latest hour (hover to see other rain measurements)
** Current wind speed in m/s (hover to see current wind gust speed)